Voltar ao catálogo

FALCON 9 R/B

AtivoMEO
NORAD 61184·ROCKET BODY·🇺🇸 United States

Lançado Sep 17, 2024 de Cape Canaveral Space Force Station

Loading…

Próximas Passagens (próximas 24 horas)

TLE

AtualizadoSource: Space-Track

Época: Sep 14, 2026, 04:12 UTC

1 61184U 24167C   26257.17533463  .00000010  00000-0  00000-0 0  9995
2 61184  55.1749 218.3499 0011058  15.6888 344.3021  1.72615514 12518

Acompanhe FALCON 9 R/B em tempo real com AllMySat

Download on the App Store